This demonstration page uses our WeatherBlox Daily Observations layout. Learn more.

Left ArrowRight Arrow

39.29038, -76.61219

Hourly Observations for May 13, 2021

Temp ( °F °C ) Dew Point ( °F °C ) Humidity (%) Winds ( mph kmh ) Pressure ( in mb ) Visibility ( mi km ) Precip ( " mm )
12:54 am 00:54 Mostly Clear 49 9.4 40 4.4 71 71 N N/A 30.22 1023 10 16 N/A
1:54 am 01:54 Mostly Clear 45 7.2 39 3.9 80 80 W 3 6 30.22 1023 10 16 N/A
2:54 am 02:54 Mostly Clear 44 6.7 38 3.3 79 79 NW 3 6 30.22 1023 10 16 N/A
3:54 am 03:54 Mostly Clear 47 8.3 35 1.7 63 63 NNW 3 6 30.23 1024 10 16 N/A
4:54 am 04:54 Mostly Clear 47 8.3 34 1.1 61 61 W 3 6 30.24 1024 10 16 N/A
5:54 am 05:54 Mostly Clear 42 5.6 35 1.7 76 76 WSW 3 6 30.24 1024 10 16 N/A
6:54 am 06:54 Mostly Sunny 47 8.3 36 2.2 66 66 N N/A 30.26 1025 10 16 N/A
7:54 am 07:54 Mostly Sunny 55 12.8 39 3.9 55 55 W 5 7 30.27 1025 10 16 N/A
8:54 am 08:54 Mostly Sunny 63 17.2 34 1.1 34 34 VRB 5 7 30.27 1025 10 16 N/A
9:54 am 09:54 Mostly Sunny 65 18.3 32 undefined 29 29 NNE 8 13 30.28 1025 10 16 N/A
10:54 am 10:54 Mostly Sunny 67 19.4 28 -2.2 23 23 undefined N/A 30.27 1025 10 16 N/A
11:54 am 11:54 Mostly Sunny 69 20.6 27 -2.8 21 21 N 7 11 30.27 1025 10 16 N/A
12:54 pm 12:54 Partly Cloudy 70 21.1 29 -1.7 22 22 undefined N/A 30.24 1024 10 16 N/A
1:54 pm 13:54 Partly Cloudy 71 21.7 30 -1.1 22 22 NNE 10 17 30.23 1024 10 16 N/A
2:54 pm 14:54 Partly Cloudy 72 22.2 32 undefined 23 23 WNW 9 15 30.21 1023 10 16 N/A
3:54 pm 15:54 Mostly Cloudy 73 22.8 32 undefined 22 22 VRB 6 9 30.20 1023 10 16 N/A
4:54 pm 16:54 Partly Cloudy 71 21.7 32 undefined 24 24 NNW 9 15 30.19 1022 10 16 N/A
5:54 pm 17:54 Partly Cloudy 69 20.6 28 -2.2 22 22 NW 8 13 30.18 1022 10 16 N/A
6:54 pm 18:54 Partly Cloudy 69 20.6 30 -1.1 23 23 WNW 7 11 30.18 1022 10 16 N/A
7:54 pm 19:54 Mostly Cloudy 64 17.8 32 undefined 30 30 NW 6 9 30.19 1022 10 16 N/A
8:54 pm 20:54 Partly Cloudy 63 17.2 32 undefined 31 31 N N/A 30.20 1023 10 16 N/A
9:54 pm 21:54 Mostly Clear 58 14.4 36 2.2 44 44 N N/A 30.22 1023 10 16 N/A
10:54 pm 22:54 Mostly Clear 52 11.1 37 2.8 57 57 N N/A 30.23 1024 10 16 N/A
11:54 pm 23:54 Mostly Clear 49 9.4 38 3.3 66 66 WSW 3 6 30.22 1024 10 16 N/A

Powered by AerisWeather